OneWeb SL0182

operational
NORAD ID: 48228 Int'l Des: 2021-031 Owner: ONEWEBN Country: UK Constellation: oneweb
LEOCIRCULARPOLARONEWEB_TYPE

关于 OneWeb SL0182

正在加载描述...

实时位置

正在加载3D地球...

即将过境

高度历史

Altitude vs Time

uPlot chart will show altitude changes over time

两行轨道根数

1 48228U 21031U 26034.51933264 -.00000004 00000-0 -44532-4 0 9997
2 48228 87.9021 316.3560 0001924 74.5718 285.5625 13.14502430230871
Epoch: Feb 3, 2026 • Age: 8 hours

当前状态

高度 1208.2 km
速度 7.25 km/s
星下点 9.05°N, 52.36°E
发射日期 Apr 25, 2021
运行时间 4.7 years
类型 internet

技术详情

分类 Payload
质量 148.00 kg
干质量 140.00 kg
总质量 148.00 kg
长度 1.30 m
直径 1.00 m
跨度 5.00 m
形状 Trapezoid+2 pan
制造商 ONEWUS
平台类型 ARROW
阶段状态 In Orbit
所有者/国家 ONEWEBN/UK

大型星座

Loading constellations...